Home > Weather > Lubbock > Past weeks

Flag for U.S.A. Weather for the Past 2 Weeks in Lubbock, Texas, U.S.A.

Now
24 °F

Clear.


Feels Like: 12 °F
Forecast: 26 / 56 °F
Wind: 13 mph from Northwest

Location: Lubbock International Airport

Current Time: Feb 6, 2016 at 3:18:03 AM

Latest Report: Feb 6, 2016 at 2:53 AM


Visibility: 10 mi

Pressure: 30.37 "Hg (26.83 "Hg at 976m altitude)

Humidity: 75%

Dew point: 17 °F

Location of LubbockLocation

Historic Weather in Lubbock — Graph

°F

Lubbock Temperature Yesterday

Maximum temperature yesterday: 50 °F (at 3:53 PM)
Minimum temperature yesterday: 23 °F (at 7:53 AM)
Average temperature yesterday: 37 °F

High & Low Weather Summary for the Past Weeks

 TemperatureHumidityPressure
High80 °F (Jan 30, 1:53 PM)96% (Feb 1, 5:53 AM)30.43 "Hg (Feb 1, 5:53 AM)
Low19 °F (Feb 3, 7:53 AM)7% (Jan 29, 1:53 PM)29.41 "Hg (Feb 1, 2:53 PM)
Average43 °F47%30.00 "Hg
* Reported Jan 22 1:53 AM — Feb 6 1:53 AM, Lubbock, Weather by CustomWeather, © 2016

Note: Actual official high and low records may vary slightly from our data, if they occured in-between our weather recording intervals... More about our weather records

Advertising

Lubbock Weather History for the Previous 24 Hours

 ConditionsComfort  
Time TempWeatherWind HumidityBarometerVisibility
1:53 AM
Sat, Feb 6
25 °FClear.10 mph72%30.38 "Hg10 mi
12:53 AM27 °FClear.10 mph69%30.36 "Hg10 mi
11:53 PM
Fri, Feb 5
29 °FClear.10 mph66%30.34 "Hg10 mi
10:53 PM30 °FClear.13 mph66%30.34 "Hg10 mi
9:53 PM32 °FClear.15 mph61%30.34 "Hg10 mi
8:53 PM35 °FClear.14 mph56%30.34 "Hg10 mi
7:53 PM38 °FClear.14 mph45%30.34 "Hg10 mi
6:53 PM41 °FPassing clouds.18 mph36%30.31 "Hg10 mi
5:53 PM44 °FPassing clouds.18 mph29%30.27 "Hg10 mi
4:53 PM48 °FScattered clouds.26 mph24%30.22 "Hg9 mi
3:53 PM50 °FScattered clouds.24 mph22%30.19 "Hg10 mi
2:53 PM49 °FPassing clouds.25 mph21%30.17 "Hg10 mi
1:53 PM46 °FPartly sunny.22 mph30%30.18 "Hg10 mi
12:53 PM46 °FPartly sunny.18 mph31%30.20 "Hg10 mi
11:53 AM45 °FPartly sunny.18 mph31%30.23 "Hg10 mi
10:53 AM45 °FPartly sunny.17 mph30%30.22 "Hg10 mi
9:53 AM40 °FPartly sunny.14 mph38%30.23 "Hg10 mi
8:53 AM29 °FPassing clouds.8 mph56%30.26 "Hg10 mi
7:53 AM23 °FPassing clouds.8 mph63%30.25 "Hg10 mi
6:53 AM24 °FPassing clouds.7 mph57%30.23 "Hg10 mi
5:53 AM25 °FPassing clouds.7 mph55%30.20 "Hg10 mi
4:53 AM31 °FPassing clouds.7 mph45%30.19 "Hg10 mi
3:53 AM30 °FPassing clouds.7 mph45%30.21 "Hg10 mi
Weather by CustomWeather, © 2016

See weather overviewHow to use our weather pages